Location: Etzleinsberg
(48.4833°N, 14.0333°E)
Time: 06:45:10
(UTC+00:00)

AQUA - Pass Details

Date: 07 June 2020
Orbit: 702 x 703 km, 98.2° (Epoch: 07 July)

Event Time Altitude Azimuth Distance (km) Brightness Sun altitude
Rises 01:07:31 0° 14° (NNE) 3,103 8.8 -13.5°
Reaches altitude 10° 01:09:47 10° 15° (NNE) 2,180 7.7 -13.3°
Maximum altitude 01:14:35 86° 103° (ESE) 711 3.8 -12.9°
Enters shadow 01:18:18 17° 194° (SSW) 1,754 5.3 -12.6°
